Check out our new BloomSky Weather System.

Active alerts

Galveston, TX
  Details for Galveston, TX Rip Current Statement


Thunder radar  blitzortung!


Rain radar more information rain snow radar


Visit our other weather sites:

Template documentation
and downloads

And another site



Weather Underground History page Text

Daily Summary for February 9, 2018 Units:  Metric    English   Both
« Previous Day
Next Day »
Daily Weekly Monthly Yearly Custom
  High: Low: Average:
Temperature: -17.8 °C 12.8 °C 16.7 °C
Dew Point: -17.8 °C 9.5 °C 14.3 °C
Humidity: Humidity % 79 % 86 %
Wind Speed: 0 km/h 0 km/h 2.4 km/h
Wind Gust: 0 km/h - -
Wind:- - SE
Pressure: 0 hPa 1015.1 hPa -
Precipitation: 1.02 mm    
Historical Graphs
 
 
Tabular Data for February 9, 2018
Time Temperature Dew Point Pressure Wind Wind Speed Wind Gust Humidity Rainfall Rate (Hourly)
-17.8 °C -17.8 °C 0 hPa Calm     Humidity % 0 mm
00:02 12.9 °C 10.1 °C 1024.6 hPa Calm   1.6 km/h 83 % 0 mm
00:07 12.9 °C 10.1 °C 1024.3 hPa Calm   1.6 km/h 83 % 0 mm
00:12 12.9 °C 10.1 °C 1024.3 hPa ESE 1.6 km/h 1.6 km/h 83 % 0 mm
00:17 12.9 °C 10.1 °C 1024.3 hPa Calm   1.6 km/h 83 % 0 mm
00:22 12.8 °C 10 °C 1024.3 hPa NE 1.6 km/h 1.6 km/h 83 % 0 mm
00:27 12.9 °C 10.1 °C 1024.3 hPa SE 3.2 km/h 6.4 km/h 83 % 0 mm
00:32 12.9 °C 9.9 °C 1023.9 hPa ESE 4.8 km/h 6.4 km/h 82 % 0 mm
00:37 13 °C 9.8 °C 1024.3 hPa South 6.4 km/h 16.1 km/h 81 % 0 mm
00:42 13.1 °C 9.9 °C 1024.3 hPa South 4.8 km/h 16.1 km/h 81 % 0 mm
00:47 13.2 °C 9.8 °C 1023.9 hPa SE 3.2 km/h 16.1 km/h 80 % 0 mm
00:52 13.2 °C 9.8 °C 1023.9 hPa SE 11.3 km/h 12.9 km/h 80 % 0 mm
00:57 13.2 °C 9.6 °C 1023.9 hPa SSE 11.3 km/h 12.9 km/h 79 % 0 mm
01:02 13.2 °C 9.6 °C 1023.9 hPa East 3.2 km/h 17.7 km/h 79 % 0 mm
01:07 13.2 °C 9.6 °C 1023.9 hPa SSE 8 km/h 17.7 km/h 79 % 0 mm
01:12 13.2 °C 9.8 °C 1023.6 hPa SSE 6.4 km/h 17.7 km/h 80 % 0 mm
01:17 13.2 °C 9.6 °C 1023.6 hPa ESE 3.2 km/h 14.5 km/h 79 % 0 mm
01:22 13.2 °C 9.8 °C 1023.6 hPa SSE 4.8 km/h 14.5 km/h 80 % 0 mm
01:27 13.2 °C 9.8 °C 1023.6 hPa SSE 4.8 km/h 14.5 km/h 80 % 0 mm
01:32 13.1 °C 9.7 °C 1023.2 hPa ESE 4.8 km/h 11.3 km/h 80 % 0 mm
01:37 13.1 °C 9.9 °C 1023.2 hPa ESE 4.8 km/h 9.7 km/h 81 % 0 mm
01:42 13.1 °C 9.9 °C 1023.2 hPa SE 4.8 km/h 8 km/h 81 % 0 mm
01:47 13 °C 9.6 °C 1023.2 hPa ESE 4.8 km/h 11.3 km/h 80 % 0 mm
01:52 12.9 °C 9.5 °C 1023.2 hPa SE 6.4 km/h 11.3 km/h 80 % 0 mm
01:57 12.9 °C 9.5 °C 1023.2 hPa SSE 8 km/h 11.3 km/h 80 % 0 mm
02:02 12.9 °C 9.5 °C 1022.9 hPa SE 4.8 km/h 11.3 km/h 80 % 0 mm
02:07 12.9 °C 9.7 °C 1022.9 hPa SE 12.9 km/h 12.9 km/h 81 % 0 mm
02:12 12.9 °C 9.7 °C 1022.9 hPa ESE 9.7 km/h 14.5 km/h 81 % 0 mm
02:17 13 °C 9.8 °C 1022.9 hPa SSW 3.2 km/h 14.5 km/h 81 % 0 mm
02:22 13 °C 9.8 °C 1022.9 hPa SE 3.2 km/h 14.5 km/h 81 % 0 mm
02:27 13 °C 9.8 °C 1022.6 hPa SSE 6.4 km/h 12.9 km/h 81 % 0 mm
02:32 13 °C 9.6 °C 1022.6 hPa SSE 4.8 km/h 12.9 km/h 80 % 0 mm
02:37 13.1 °C 9.7 °C 1022.6 hPa SE 9.7 km/h 12.9 km/h 80 % 0 mm
02:42 13.1 °C 9.7 °C 1022.2 hPa SE 4.8 km/h 11.3 km/h 80 % 0 mm
02:47 13.1 °C 9.7 °C 1022.2 hPa SSE 4.8 km/h 11.3 km/h 80 % 0 mm
02:52 13.1 °C 9.7 °C 1022.2 hPa South 4.8 km/h 11.3 km/h 80 % 0 mm
02:57 13.1 °C 9.7 °C 1022.2 hPa SSW 3.2 km/h 9.7 km/h 80 % 0 mm
03:02 13.1 °C 9.7 °C 1022.2 hPa SSW 3.2 km/h 9.7 km/h 80 % 0 mm
03:07 13.1 °C 9.9 °C 1021.9 hPa SE 8 km/h 9.7 km/h 81 % 0 mm
03:12 13.1 °C 9.9 °C 1021.9 hPa ESE 9.7 km/h 9.7 km/h 81 % 0 mm
03:17 13.1 °C 10.1 °C 1021.9 hPa South 8 km/h 14.5 km/h 82 % 0 mm
03:22 13 °C 10 °C 1021.9 hPa SSE 3.2 km/h 14.5 km/h 82 % 0 mm
03:27 13 °C 10.2 °C 1021.9 hPa SSW 1.6 km/h 14.5 km/h 83 % 0 mm
03:32 13 °C 10.2 °C 1021.9 hPa SE 6.4 km/h 12.9 km/h 83 % 0 mm
03:37 13 °C 10.2 °C 1021.9 hPa South 4.8 km/h 9.7 km/h 83 % 0 mm
03:42 12.9 °C 10.1 °C 1021.9 hPa SSE 3.2 km/h 9.7 km/h 83 % 0 mm
03:47 13 °C 10.2 °C 1021.9 hPa SSE 4.8 km/h 9.7 km/h 83 % 0 mm
03:52 13 °C 10.2 °C 1021.9 hPa SSE 1.6 km/h 9.7 km/h 83 % 0 mm
03:57 13 °C 10.2 °C 1021.6 hPa Calm   8 km/h 83 % 0 mm
04:02 13 °C 10.2 °C 1021.6 hPa Calm   8 km/h 83 % 0 mm
04:07 13 °C 10.2 °C 1021.6 hPa Calm   6.4 km/h 83 % 0 mm
04:12 13 °C 10.2 °C 1021.6 hPa SSW 3.2 km/h 4.8 km/h 83 % 0 mm
04:17 12.9 °C 10.1 °C 1021.6 hPa South 1.6 km/h 4.8 km/h 83 % 0 mm
04:22 12.9 °C 10.1 °C 1021.6 hPa South 1.6 km/h 3.2 km/h 83 % 0 mm
04:27 12.9 °C 10.1 °C 1021.6 hPa SE 1.6 km/h 3.2 km/h 83 % 0 mm
04:32 12.9 °C 9.9 °C 1021.6 hPa Calm   3.2 km/h 82 % 0 mm
04:37 12.9 °C 9.9 °C 1021.6 hPa Calm   3.2 km/h 82 % 0 mm
04:42 12.9 °C 9.9 °C 1021.6 hPa Calm   3.2 km/h 82 % 0 mm
04:47 12.9 °C 9.9 °C 1021.6 hPa Calm   1.6 km/h 82 % 0 mm
04:52 12.9 °C 9.9 °C 1021.6 hPa Calm     82 % 0 mm
04:57 12.9 °C 9.9 °C 1021.6 hPa Calm     82 % 0 mm
05:02 12.9 °C 9.9 °C 1021.6 hPa Calm   1.6 km/h 82 % 0 mm
05:07 12.9 °C 9.9 °C 1021.6 hPa Calm   1.6 km/h 82 % 0 mm
05:12 12.9 °C 9.9 °C 1021.6 hPa Calm   1.6 km/h 82 % 0 mm
05:17 13 °C 10 °C 1021.6 hPa Calm   1.6 km/h 82 % 0 mm
05:22 13 °C 10.2 °C 1021.6 hPa Calm     83 % 0 mm
05:27 13 °C 10 °C 1021.6 hPa Calm     82 % 0 mm
05:32 13 °C 10.2 °C 1021.6 hPa Calm     83 % 0 mm
05:37 13.1 °C 10.3 °C 1021.6 hPa Calm   1.6 km/h 83 % 0 mm
05:42 13.1 °C 10.3 °C 1021.6 hPa Calm   1.6 km/h 83 % 0 mm
05:47 13.1 °C 10.3 °C 1021.6 hPa Calm   1.6 km/h 83 % 0 mm
05:52 13.1 °C 10.3 °C 1021.6 hPa Calm   1.6 km/h 83 % 0 mm
05:57 13.1 °C 10.3 °C 1021.6 hPa Calm   1.6 km/h 83 % 0 mm
06:02 13.1 °C 10.3 °C 1021.6 hPa Calm   1.6 km/h 83 % 0 mm
06:07 13.1 °C 10.5 °C 1021.6 hPa Calm   1.6 km/h 84 % 0 mm
06:12 13.1 °C 10.5 °C 1021.6 hPa Calm   1.6 km/h 84 % 0 mm
06:17 13.1 °C 10.5 °C 1021.6 hPa Calm   1.6 km/h 84 % 0 mm
06:22 13.1 °C 10.5 °C 1021.6 hPa Calm   1.6 km/h 84 % 0 mm
06:27 13.1 °C 10.5 °C 1021.6 hPa Calm   1.6 km/h 84 % 0 mm
06:32 13.1 °C 10.5 °C 1021.6 hPa Calm   1.6 km/h 84 % 0 mm
06:37 13.1 °C 10.6 °C 1021.6 hPa North 1.6 km/h 1.6 km/h 85 % 0 mm
06:42 13.1 °C 10.6 °C 1021.6 hPa Calm   1.6 km/h 85 % 0 mm
06:43 13.1 °C 10.6 °C 1021.6 hPa Calm   1.6 km/h 85 % 0 mm
06:48 13.1 °C 10.6 °C 1021.6 hPa North 1.6 km/h 1.6 km/h 85 % 0 mm
06:53 13.1 °C 10.6 °C 1021.6 hPa Calm   1.6 km/h 85 % 0 mm
06:58 13.1 °C 10.6 °C 1021.6 hPa Calm   1.6 km/h 85 % 0 mm
07:03 13.1 °C 10.6 °C 1021.6 hPa Calm   1.6 km/h 85 % 0 mm
07:08 13.1 °C 10.6 °C 1021.6 hPa NNW 1.6 km/h 3.2 km/h 85 % 0 mm
07:13 13.1 °C 10.6 °C 1021.6 hPa NNE 1.6 km/h 3.2 km/h 85 % 0 mm
07:18 13.2 °C 10.7 °C 1021.6 hPa Calm   3.2 km/h 85 % 0 mm
07:23 13.2 °C 10.7 °C 1021.6 hPa Calm   3.2 km/h 85 % 0 mm
07:28 13.2 °C 10.7 °C 1021.6 hPa Calm   3.2 km/h 85 % 0 mm
07:33 13.2 °C 10.7 °C 1021.6 hPa Calm   1.6 km/h 85 % 0 mm
07:38 13.2 °C 10.7 °C 1021.6 hPa Calm   1.6 km/h 85 % 0 mm
07:43 13.3 °C 10.8 °C 1021.6 hPa Calm   1.6 km/h 85 % 0 mm
07:48 13.3 °C 10.8 °C 1021.6 hPa Calm   1.6 km/h 85 % 0 mm
07:53 13.3 °C 10.8 °C 1021.6 hPa Calm   1.6 km/h 85 % 0 mm
07:58 13.4 °C 10.8 °C 1021.6 hPa North 1.6 km/h 1.6 km/h 84 % 0 mm
08:03 13.5 °C 10.8 °C 1021.6 hPa Calm   1.6 km/h 84 % 0 mm
08:08 13.6 °C 10.9 °C 1021.6 hPa Calm   1.6 km/h 84 % 0 mm
08:13 13.6 °C 10.9 °C 1021.6 hPa Calm   1.6 km/h 84 % 0 mm
08:18 13.7 °C 11 °C 1021.6 hPa ESE 1.6 km/h 1.6 km/h 84 % 0 mm
08:23 13.8 °C 11 °C 1021.6 hPa Calm   3.2 km/h 83 % 0 mm
08:28 13.8 °C 11 °C 1021.6 hPa Calm   3.2 km/h 83 % 0 mm
08:33 13.9 °C 11.1 °C 1021.6 hPa ESE 1.6 km/h 3.2 km/h 83 % 0 mm
08:38 13.9 °C 11.1 °C 1021.6 hPa Calm   3.2 km/h 83 % 0 mm
08:43 14 °C 11.2 °C 1021.6 hPa ESE 1.6 km/h 3.2 km/h 83 % 0 mm
08:48 14.1 °C 11.3 °C 1021.6 hPa East 3.2 km/h 3.2 km/h 83 % 0 mm
08:53 14.2 °C 11.2 °C 1021.6 hPa Calm   3.2 km/h 82 % 0 mm
08:54 14.2 °C 11.2 °C 1021.6 hPa Calm   3.2 km/h 82 % 0 mm
08:59 14.2 °C 11.2 °C 1021.6 hPa East 1.6 km/h 3.2 km/h 82 % 0 mm
09:04 14.3 °C 11.3 °C 1021.6 hPa NNE 1.6 km/h 3.2 km/h 82 % 0 mm
09:09 14.3 °C 11.3 °C 1021.9 hPa SSE 1.6 km/h 4.8 km/h 82 % 0 mm
09:14 14.3 °C 11.3 °C 1021.9 hPa SSE 3.2 km/h 4.8 km/h 82 % 0 mm
09:19 14.4 °C 11.4 °C 1021.9 hPa ESE 1.6 km/h 4.8 km/h 82 % 0 mm
09:24 14.4 °C 11.4 °C 1021.9 hPa SE 1.6 km/h 4.8 km/h 82 % 0 mm
09:29 14.5 °C 11.6 °C 1021.9 hPa Calm   4.8 km/h 83 % 0 mm
09:34 14.6 °C 11.7 °C 1021.9 hPa Calm   3.2 km/h 83 % 0 mm
09:39 14.6 °C 11.7 °C 1021.6 hPa Calm   6.4 km/h 83 % 0 mm
09:44 14.7 °C 12 °C 1021.6 hPa Calm   6.4 km/h 84 % 0 mm
09:49 14.8 °C 11.9 °C 1021.6 hPa Calm   6.4 km/h 83 % 0 mm
09:54 15 °C 12.1 °C 1021.6 hPa ESE 3.2 km/h 3.2 km/h 83 % 0 mm
09:59 15.2 °C 12.3 °C 1021.6 hPa East 1.6 km/h 3.2 km/h 83 % 0 mm
10:04 15.3 °C 12.4 °C 1021.6 hPa SSE 1.6 km/h 3.2 km/h 83 % 0 mm
10:09 15.4 °C 12.5 °C 1021.6 hPa ESE 1.6 km/h 6.4 km/h 83 % 0 mm
10:14 15.4 °C 12.5 °C 1021.6 hPa Calm   6.4 km/h 83 % 0 mm
10:19 15.5 °C 12.6 °C 1021.6 hPa Calm   6.4 km/h 83 % 0 mm
10:24 15.7 °C 13 °C 1021.6 hPa ESE 1.6 km/h 4.8 km/h 84 % 0 mm
10:29 15.9 °C 13 °C 1021.6 hPa Calm   4.8 km/h 83 % 0 mm
10:34 16.1 °C 13.2 °C 1021.2 hPa Calm   4.8 km/h 83 % 0 mm
10:39 16.3 °C 13.4 °C 1021.2 hPa East 1.6 km/h 4.8 km/h 83 % 0 mm
10:44 16.3 °C 13.2 °C 1021.2 hPa East 1.6 km/h 4.8 km/h 82 % 0 mm
10:49 16.4 °C 13.5 °C 1021.2 hPa Calm   6.4 km/h 83 % 0 mm
10:54 16.4 °C 13.9 °C 1021.2 hPa SSE 3.2 km/h 6.4 km/h 85 % 0 mm
10:59 16.4 °C 13.9 °C 1021.2 hPa SE 3.2 km/h 8 km/h 85 % 0 mm
11:04 16.4 °C 13.9 °C 1021.2 hPa SE 1.6 km/h 8 km/h 85 % 0 mm
11:09 16.6 °C 14.1 °C 1021.2 hPa SE 1.6 km/h 8 km/h 85 % 0 mm
11:14 16.7 °C 14.2 °C 1021.2 hPa SE 3.2 km/h 6.4 km/h 85 % 0 mm
11:19 16.9 °C 14.4 °C 1020.9 hPa South 4.8 km/h 6.4 km/h 85 % 0 mm
11:24 16.9 °C 14.4 °C 1020.9 hPa East 3.2 km/h 6.4 km/h 85 % 0 mm
11:29 16.9 °C 14.4 °C 1020.9 hPa SE 4.8 km/h 8 km/h 85 % 0 mm
11:34 16.8 °C 14.3 °C 1020.5 hPa ENE 3.2 km/h 8 km/h 85 % 0 mm
11:39 16.8 °C 14.4 °C 1020.5 hPa SE 3.2 km/h 8 km/h 86 % 0 mm
11:45 16.9 °C 14.4 °C 1020.5 hPa ESE 4.8 km/h 8 km/h 85 % 0 mm
11:49 17.1 °C 14.6 °C 1020.2 hPa ESE 8 km/h 9.7 km/h 85 % 0 mm
11:54 17.1 °C 14.6 °C 1020.2 hPa South 3.2 km/h 9.7 km/h 85 % 0 mm
12:00 17.2 °C 14.7 °C 1020.2 hPa ESE 3.2 km/h 9.7 km/h 85 % 0 mm
12:05 17.3 °C 14.9 °C 1020.2 hPa SSE 6.4 km/h 9.7 km/h 86 % 0 mm
12:10 17.6 °C 15.2 °C 1020.2 hPa South 3.2 km/h 9.7 km/h 86 % 0 mm
12:15 17.7 °C 15.1 °C 1019.9 hPa SE 3.2 km/h 9.7 km/h 85 % 0 mm
12:20 17.8 °C 15.2 °C 1019.9 hPa SSE 1.6 km/h 8 km/h 85 % 0 mm
12:25 17.9 °C 15.3 °C 1019.9 hPa East 1.6 km/h 8 km/h 85 % 0 mm
12:30 18 °C 15.4 °C 1019.5 hPa ESE 4.8 km/h 8 km/h 85 % 0 mm
12:35 18.1 °C 15.5 °C 1019.5 hPa SSE 6.4 km/h 8 km/h 85 % 0 mm
12:40 18.2 °C 15.8 °C 1019.2 hPa SSE 1.6 km/h 9.7 km/h 86 % 0 mm
12:45 18.4 °C 15.8 °C 1019.2 hPa ENE 4.8 km/h 9.7 km/h 85 % 0 mm
12:50 18.8 °C 16.2 °C 1018.8 hPa ESE 1.6 km/h 9.7 km/h 85 % 0 mm
12:55 19.3 °C 16.5 °C 1018.8 hPa SE 3.2 km/h 9.7 km/h 84 % 0 mm
13:00 19.6 °C 16.4 °C 1018.5 hPa East 1.6 km/h 8 km/h 82 % 0 mm
13:05 19.8 °C 16.6 °C 1018.5 hPa SW 3.2 km/h 11.3 km/h 82 % 0 mm
13:10 19.9 °C 16.5 °C 1018.5 hPa SE 8 km/h 11.3 km/h 81 % 0 mm
13:15 19.8 °C 16.6 °C 1018.5 hPa ESE 3.2 km/h 11.3 km/h 82 % 0 mm
13:20 19.8 °C 16.8 °C 1018.2 hPa SE 4.8 km/h 12.9 km/h 83 % 0 mm
13:25 19.8 °C 16.6 °C 1018.2 hPa SE 1.6 km/h 12.9 km/h 82 % 0 mm
13:30 19.8 °C 16.6 °C 1018.2 hPa ESE 6.4 km/h 12.9 km/h 82 % 0 mm
13:35 19.8 °C 16.6 °C 1018.2 hPa ESE 3.2 km/h 9.7 km/h 82 % 0 mm
13:40 19.8 °C 16.6 °C 1017.8 hPa SE 3.2 km/h 8 km/h 82 % 0 mm
13:45 20 °C 16.8 °C 1017.8 hPa SE 6.4 km/h 9.7 km/h 82 % 0 mm
13:50 20.1 °C 16.9 °C 1017.8 hPa SE 3.2 km/h 9.7 km/h 82 % 0 mm
13:55 20.3 °C 17.1 °C 1017.8 hPa Calm   9.7 km/h 82 % 0 mm
14:00 20.4 °C 17 °C 1017.5 hPa ESE 6.4 km/h 9.7 km/h 81 % 0 mm
14:05 20.4 °C 17 °C 1017.5 hPa SE 1.6 km/h 8 km/h 81 % 0 mm
14:10 20.4 °C 17 °C 1017.5 hPa South 6.4 km/h 8 km/h 81 % 0 mm
14:15 20.3 °C 17.1 °C 1017.2 hPa East 4.8 km/h 9.7 km/h 82 % 0 mm
14:20 20.3 °C 17.1 °C 1017.2 hPa North 3.2 km/h 9.7 km/h 82 % 0 mm
14:25 20.4 °C 17.2 °C 1017.2 hPa East 3.2 km/h 9.7 km/h 82 % 0 mm
14:30 20.5 °C 17.3 °C 1017.2 hPa Calm   6.4 km/h 82 % 0 mm
14:35 20.6 °C 17.4 °C 1016.8 hPa SSE 4.8 km/h 6.4 km/h 82 % 0 mm
14:40 20.7 °C 17.3 °C 1016.8 hPa ENE 3.2 km/h 6.4 km/h 81 % 0 mm
14:45 20.8 °C 17.6 °C 1016.8 hPa SSW 4.8 km/h 8 km/h 82 % 0 mm
14:50 20.9 °C 17.7 °C 1016.8 hPa SSW 3.2 km/h 8 km/h 82 % 0 mm
14:55 20.9 °C 17.7 °C 1016.8 hPa ESE 1.6 km/h 8 km/h 82 % 0 mm
15:00 20.9 °C 17.7 °C 1016.5 hPa SE 1.6 km/h 6.4 km/h 82 % 0 mm
15:05 21 °C 17.8 °C 1016.5 hPa ESE 1.6 km/h 4.8 km/h 82 % 0 mm
15:10 21.1 °C 17.9 °C 1016.5 hPa Calm   4.8 km/h 82 % 0 mm
15:15 21.2 °C 18 °C 1016.5 hPa Calm   4.8 km/h 82 % 0 mm
15:20 21.3 °C 17.7 °C 1016.5 hPa Calm   4.8 km/h 80 % 0 mm
15:25 21.3 °C 17.7 °C 1016.1 hPa East 1.6 km/h 3.2 km/h 80 % 0 mm
15:30 21.4 °C 18 °C 1016.1 hPa Calm   3.2 km/h 81 % 0 mm
15:35 21.6 °C 18 °C 1016.1 hPa ENE 1.6 km/h 3.2 km/h 80 % 0 mm
15:40 21.7 °C 18.1 °C 1016.1 hPa ESE 1.6 km/h 3.2 km/h 80 % 0 mm
15:45 21.7 °C 18.1 °C 1016.1 hPa East 3.2 km/h 4.8 km/h 80 % 0 mm
15:50 21.7 °C 18.1 °C 1016.1 hPa Calm   4.8 km/h 80 % 0 mm
15:55 21.7 °C 18.1 °C 1016.1 hPa East 4.8 km/h 4.8 km/h 80 % 0 mm
16:00 21.7 °C 18.1 °C 1016.1 hPa ESE 3.2 km/h 4.8 km/h 80 % 0 mm
16:06 21.6 °C 18.2 °C 1015.8 hPa SE 3.2 km/h 8 km/h 81 % 0 mm
16:11 21.6 °C 18.4 °C 1015.8 hPa ESE 4.8 km/h 8 km/h 82 % 0 mm
16:16 21.5 °C 18.3 °C 1015.8 hPa SW 3.2 km/h 8 km/h 82 % 0 mm
16:21 21.4 °C 18.4 °C 1015.8 hPa ENE 1.6 km/h 4.8 km/h 83 % 0 mm
16:26 21.3 °C 18.5 °C 1015.8 hPa Calm   4.8 km/h 84 % 0 mm
16:31 21.3 °C 18.7 °C 1015.5 hPa East 1.6 km/h 4.8 km/h 85 % 0 mm
16:36 21.2 °C 18.8 °C 1015.8 hPa Calm   3.2 km/h 86 % 0 mm
16:41 21.1 °C 18.7 °C 1015.5 hPa Calm   3.2 km/h 86 % 0 mm
16:46 21.1 °C 18.9 °C 1015.5 hPa Calm   3.2 km/h 87 % 0 mm
16:51 21 °C 18.8 °C 1015.5 hPa Calm   4.8 km/h 87 % 0 mm
16:56 20.9 °C 18.7 °C 1015.5 hPa Calm   4.8 km/h 87 % 0 mm
17:01 20.9 °C 18.7 °C 1015.5 hPa Calm   4.8 km/h 87 % 0 mm
17:06 20.9 °C 18.7 °C 1015.5 hPa SE 1.6 km/h 3.2 km/h 87 % 0 mm
17:07 20.9 °C 18.7 °C 1015.5 hPa ESE 3.2 km/h 3.2 km/h 87 % 0 mm
17:12 20.9 °C 18.7 °C 1015.5 hPa Calm   3.2 km/h 87 % 0 mm
17:17 20.9 °C 18.7 °C 1015.5 hPa Calm   3.2 km/h 87 % 0 mm
17:22 20.8 °C 18.6 °C 1015.5 hPa Calm   3.2 km/h 87 % 0 mm
17:27 20.8 °C 18.6 °C 1015.5 hPa East 1.6 km/h 3.2 km/h 87 % 0 mm
17:32 20.8 °C 18.6 °C 1015.5 hPa Calm   3.2 km/h 87 % 0 mm
17:37 20.8 °C 18.6 °C 1015.5 hPa Calm   3.2 km/h 87 % 0 mm
17:42 20.7 °C 18.5 °C 1015.5 hPa Calm   3.2 km/h 87 % 0 mm
17:47 20.7 °C 18.6 °C 1015.5 hPa Calm   1.6 km/h 88 % 0 mm
17:52 20.7 °C 18.6 °C 1015.5 hPa Calm   1.6 km/h 88 % 0 mm
17:57 20.7 °C 18.6 °C 1015.5 hPa ESE 1.6 km/h 1.6 km/h 88 % 0 mm
18:02 20.6 °C 18.5 °C 1015.5 hPa ESE 1.6 km/h 3.2 km/h 88 % 0 mm
18:07 20.6 °C 18.7 °C 1015.5 hPa ESE 1.6 km/h 4.8 km/h 89 % 0 mm
18:12 20.6 °C 18.7 °C 1015.5 hPa SE 1.6 km/h 4.8 km/h 89 % 0 mm
18:17 20.7 °C 19 °C 1015.5 hPa Calm   8 km/h 90 % 0 mm
18:22 20.7 °C 19 °C 1015.5 hPa East 3.2 km/h 8 km/h 90 % 0 mm
18:27 20.7 °C 19 °C 1015.5 hPa ESE 4.8 km/h 8 km/h 90 % 0 mm
18:32 20.7 °C 19 °C 1015.5 hPa SSE 1.6 km/h 8 km/h 90 % 0 mm
18:37 20.7 °C 19 °C 1015.5 hPa SSE 3.2 km/h 8 km/h 90 % 0 mm
18:42 20.7 °C 19.2 °C 1015.5 hPa SSE 1.6 km/h 8 km/h 91 % 0 mm
18:47 20.7 °C 19.2 °C 1015.5 hPa Calm   6.4 km/h 91 % 0 mm
18:52 20.6 °C 19.1 °C 1015.5 hPa Calm   6.4 km/h 91 % 0 mm
18:57 20.6 °C 19.1 °C 1015.5 hPa East 3.2 km/h 6.4 km/h 91 % 0 mm
19:02 20.4 °C 18.9 °C 1015.5 hPa SSE 4.8 km/h 6.4 km/h 91 % 0 mm
19:07 20.4 °C 18.9 °C 1015.5 hPa SE 1.6 km/h 6.4 km/h 91 % 0 mm
19:12 20.3 °C 18.8 °C 1015.5 hPa ESE 3.2 km/h 6.4 km/h 91 % 0 mm
19:17 20.2 °C 18.9 °C 1015.5 hPa East 4.8 km/h 6.4 km/h 92 % 0 mm
19:22 20.2 °C 18.9 °C 1015.5 hPa ESE 1.6 km/h 6.4 km/h 92 % 0 mm
19:27 20.1 °C 18.8 °C 1015.5 hPa SE 4.8 km/h 6.4 km/h 92 % 0 mm
19:32 20.1 °C 18.8 °C 1015.8 hPa SE 3.2 km/h 6.4 km/h 92 % 0 mm
19:37 19.9 °C 18.6 °C 1015.8 hPa South 8 km/h 9.7 km/h 92 % 0 mm
19:42 19.8 °C 18.5 °C 1015.8 hPa SE 4.8 km/h 9.7 km/h 92 % 0 mm
19:47 19.8 °C 18.5 °C 1015.8 hPa SE 6.4 km/h 9.7 km/h 92 % 0 mm
19:52 19.7 °C 18.4 °C 1015.8 hPa East 4.8 km/h 9.7 km/h 92 % 0 mm
19:57 19.6 °C 18.3 °C 1015.8 hPa ESE 1.6 km/h 9.7 km/h 92 % 0 mm
20:02 19.6 °C 18.4 °C 1015.8 hPa East 3.2 km/h 8 km/h 93 % 0 mm
20:07 19.5 °C 18.3 °C 1015.8 hPa SSE 3.2 km/h 9.7 km/h 93 % 0 mm
20:12 19.5 °C 18.3 °C 1015.8 hPa South 4.8 km/h 12.9 km/h 93 % 0 mm
20:17 19.4 °C 18.2 °C 1015.8 hPa SSE 4.8 km/h 12.9 km/h 93 % 0 mm
20:22 19.4 °C 18.2 °C 1015.8 hPa SSE 1.6 km/h 12.9 km/h 93 % 0 mm
20:27 19.3 °C 18.1 °C 1015.8 hPa ESE 6.4 km/h 9.7 km/h 93 % 0 mm
20:32 19.3 °C 18.3 °C 1015.8 hPa South 1.6 km/h 9.7 km/h 94 % 0 mm
20:37 19.3 °C 18.3 °C 1016.1 hPa ESE 3.2 km/h 9.7 km/h 94 % 0 mm
20:42 19.3 °C 18.3 °C 1016.1 hPa SE 4.8 km/h 9.7 km/h 94 % 0 mm
20:47 19.2 °C 18.2 °C 1016.1 hPa ESE 4.8 km/h 9.7 km/h 94 % 0 mm
20:52 19.2 °C 18.2 °C 1015.8 hPa SE 3.2 km/h 9.7 km/h 94 % 0 mm
20:57 19.2 °C 18.2 °C 1015.8 hPa SE 3.2 km/h 9.7 km/h 94 % 0 mm
21:02 19.1 °C 18.3 °C 1015.8 hPa SSE 3.2 km/h 9.7 km/h 95 % 0 mm
21:07 19.1 °C 18.3 °C 1015.8 hPa ESE 3.2 km/h 9.7 km/h 95 % 0 mm
21:12 19.1 °C 18.3 °C 1015.8 hPa ESE 3.2 km/h 9.7 km/h 95 % 0.25 mm
21:17 19 °C 18.2 °C 1015.8 hPa South 3.2 km/h 8 km/h 95 % 0.25 mm
21:22 18.9 °C 18.2 °C 1015.8 hPa ESE 3.2 km/h 6.4 km/h 96 % 0.25 mm
21:27 18.9 °C 18.2 °C 1015.8 hPa ESE 3.2 km/h 4.8 km/h 96 % 0.25 mm
21:32 18.9 °C 18.2 °C 1015.8 hPa Calm   4.8 km/h 96 % 0.25 mm
21:37 18.9 °C 18.2 °C 1015.8 hPa ESE 1.6 km/h 4.8 km/h 96 % 0.25 mm
21:42 18.8 °C 18.1 °C 1015.8 hPa SE 1.6 km/h 4.8 km/h 96 % 0.25 mm
21:47 18.8 °C 18.1 °C 1015.8 hPa ESE 1.6 km/h 3.2 km/h 96 % 0.51 mm
21:52 18.8 °C 18.3 °C 1015.8 hPa Calm   3.2 km/h 97 % 0.51 mm
21:57 18.8 °C 18.3 °C 1015.8 hPa SE 1.6 km/h 3.2 km/h 97 % 0.51 mm
22:02 18.8 °C 18.3 °C 1015.8 hPa Calm   4.8 km/h 97 % 0.51 mm
22:07 18.8 °C 18.3 °C 1015.8 hPa SE 1.6 km/h 4.8 km/h 97 % 0.25 mm
22:12 18.9 °C 18.4 °C 1015.5 hPa East 1.6 km/h 4.8 km/h 97 % 0.25 mm
22:17 18.9 °C 18.4 °C 1015.5 hPa Calm   3.2 km/h 97 % 0.25 mm
22:22 18.9 °C 18.4 °C 1015.5 hPa ESE 1.6 km/h 3.2 km/h 97 % 0.25 mm
22:27 18.9 °C 18.6 °C 1015.5 hPa South 1.6 km/h 3.2 km/h 98 % 0.25 mm
22:32 19 °C 18.7 °C 1015.5 hPa SSE 1.6 km/h 8 km/h 98 % 0.25 mm
22:37 19.1 °C 18.8 °C 1015.5 hPa SSE 1.6 km/h 8 km/h 98 % 0.51 mm
22:42 19.1 °C 18.8 °C 1015.5 hPa SSE 1.6 km/h 8 km/h 98 % 0.51 mm
22:47 19.1 °C 18.8 °C 1015.5 hPa South 1.6 km/h 6.4 km/h 98 % 0.25 mm
22:52 19.1 °C 18.8 °C 1015.5 hPa SSE 1.6 km/h 4.8 km/h 98 % 0.25 mm
22:57 19.1 °C 18.8 °C 1015.5 hPa SSE 3.2 km/h 4.8 km/h 98 % 0.25 mm
23:02 19.1 °C 18.8 °C 1015.5 hPa ESE 3.2 km/h 4.8 km/h 98 % 0.25 mm
23:07 19.1 °C 18.8 °C 1015.5 hPa South 1.6 km/h 4.8 km/h 98 % 0.25 mm
23:12 19.1 °C 18.8 °C 1015.5 hPa SSE 4.8 km/h 4.8 km/h 98 % 0.25 mm
23:17 19.1 °C 18.8 °C 1015.5 hPa SE 1.6 km/h 4.8 km/h 98 % 0.25 mm
23:22 19.1 °C 18.8 °C 1015.5 hPa SSE 1.6 km/h 4.8 km/h 98 % 0.25 mm
23:27 19.2 °C 18.9 °C 1015.1 hPa SSW 1.6 km/h 4.8 km/h 98 % 0.25 mm
23:32 19.2 °C 18.9 °C 1015.5 hPa SSE 1.6 km/h 4.8 km/h 98 % 0.25 mm
23:37 19.2 °C 19 °C 1015.5 hPa SE 4.8 km/h 6.4 km/h 99 % 0 mm
23:42 19.2 °C 19 °C 1015.1 hPa SSE 1.6 km/h 6.4 km/h 99 % 0.25 mm
23:47 19.2 °C 19 °C 1015.1 hPa SSW 6.4 km/h 6.4 km/h 99 % 0.25 mm
23:52 19.2 °C 19 °C 1015.1 hPa SSW 4.8 km/h 8 km/h 99 % 0.25 mm
23:57 19.1 °C 18.9 °C 1015.1 hPa SSW 8 km/h 12.9 km/h 99 % 0.25 mm
Spring, Texas: Villages of Bridgestone
Compliments of Weather Underground - 2.75 mb

Script developed by  Jim McMurry - jmcmurry@mwt.net Adapted for the template by  Wim van der Kuil - Leuven-Template.eu

You find our weather info also at:

UK Metoffice

WeatherCloud

Weather Underground

Mid-South Weather Network

AWEKAS

Citizen Weather Observer Program (CWOP)

HAMweather, WeatherForYou, PWS Weather

Equipment we use:

Weather-station
Davis Vantage Vue

Weather-program
Meteohub

Weather-server
Debian 7.9 x86 (Guest)

Provider
DreamHost

Davis Vantage Vue

Meteohub

Debian 7.9 x86 (Guest)

DreamHost